Regional Weather Roundup
Issued by NWS Grand Forks, ND

Home | Current Version | Previous Version | Text Only | Print | Product List | Glossary Off
Versions: 1 2 3 4 5 6 7 8 9 10 11 12 13 14 15 16 17 18 19 20 21 22 23 24 25 26 27 28 29 30 31 32 33 34 35 36 37 38 39 40 41 42 43 44 45 46 47 48 49 50

000
ASUS43 KFGF 261010
RWRFGF
PRAIRIE TO PINES  WEATHER ROUNDUP
NATIONAL WEATHER SERVICE EASTERN NORTH DAKOTA/GRAND FORKS ND
500 AM CDT THU MAR 26 2015

 **SATELLITE DATA USED TO AUGMENT SKY COVER AT AUTOMATED STATIONS**
 *****  WEATHER ACROSS EASTERN NORTH DAKOTA  *****

CITY           SKY/WX    TMP DP  RH WIND       PRES   REMARKS
GRAND FORKS    CLEAR     20  17  88 N8        30.20S WCI  10
GRAND FRKS AFB CLEAR     17  14  86 N7        30.20S WCI   8
DEVILS LAKE    CLOUDY    27  19  74 NE8       30.18S WCI  18
FARGO          PTCLDY    21  17  84 N7        30.18S WCI  12
WAHPETON ARPT  SUNNY     27  21  80 N7        30.17S WCI  19
$$

 ***** WEATHER ACROSS CENTRAL AND WESTERN NORTH DAKOTA  *****

CITY           SKY/WX    TMP DP  RH WIND       PRES   REMARKS
BISMARCK       CLOUDY    25  22  88 W6        30.18S WCI  18
MINOT          CLOUDY    26  22  84 NE3       30.17F
JAMESTOWN      MOCLDY    21  18  88 NW6       30.16S WCI  13
MINOT AFB      CLOUDY    25  24  99 E2        30.17F
GARRISON         N/A     27  24  89 CALM      30.16S
WILLISTON      LGT SNOW  30  27  88 NE6       30.15F FOG     WCI  24
DICKINSON      LGT SNOW  28  24  85 SE8       30.10F VSB 3/4 WCI  20
HETTINGER      CLOUDY    28  22  78 E3        30.12F
$$

 *****  OTHER AIRPORT OBSERVATIONS IN OUR AREA  *****

CITY           SKY/WX    TMP DP  RH WIND       PRES   REMARKS
WALHALLA         N/A     21  21 100 N9        30.23S WCI  11
GRAFTON AIRPOR NOT AVBL
VALLEY CITY AR CLOUDY    25  25 100 N3        30.17S
CANDO          NOT AVBL
CAVALIER APRT    N/A     23  19  86 N8        30.22S WCI  14
GWINNER          N/A     27  25  93 N6          N/A  WCI  20
SHEYENNE NWR     N/A     24  21  88 N3        29.95S
ROLLA          CLOUDY    25  25 100 NE8       30.19R WCI  16
 ***** THE ABOVE OBSERVATIONS ARE NON NWS ARE NOT QUALITY
       CONTROLLED AND MAY MIS-REPORT RAIN FOR SNOW...
$$

  *****  WEATHER ACROSS NORTHERN MINNESOTA  *****

CITY           SKY/WX    TMP DP  RH WIND       PRES   REMARKS
FLAG ISLAND    PTCLDY    19  12  73 N14       30.15S WCI   6
WARROAD        FLURRIES  21  16  79 N12       30.16R WCI   9
ROSEAU         CLOUDY    23  16  74 N15       30.17R WCI  10
HALLOCK        PTCLDY    23  18  80 N9        30.20S WCI  13
THF RVR FALLS  CLOUDY    25  19  80 NW10      30.16S WCI  15
BAUDETTE       CLOUDY    21  11  65 N12G21    30.13R WCI   9
WASKISH        CLOUDY    23  16  74 N8        30.12S WCI  14
CROOKSTON      MOCLDY    23  19  86 N9        30.19S WCI  13
$$
  *****  WEATHER ACROSS CENTRAL AND WEST MINNESOTA  *****

CITY           SKY/WX    TMP DP  RH WIND       PRES   REMARKS
FOSSTON        CLOUDY    21  18  86 NW9       30.14S WCI  11
BEMIDJI        CLOUDY    25  17  73 N10       30.09S WCI  14
PARK RAPIDS    CLOUDY    24  18  77 NW10      30.09S WCI  14
ELBOW LAKE     FAIR      24  20  87 N9        30.13F WCI  14
WADENA         CLEAR     19  16  86 NW8       30.10F WCI   9
DETROIT LAKES  CLEAR     21  19  93 NW7       30.14S WCI  13
MOORHEAD       PTCLDY    23  23 100 N7        30.18S WCI  15
FERGUS FALLS   CLEAR     21  16  79 N6        30.18S WCI  14
MORRIS MN      CLEAR     27  21  80 N10       30.13S WCI  17
STAPLES        CLOUDY    21  18  86 NW9       30.09F WCI  11
$$
  *****  WEATHER ELSEWHERE ACROSS MINNESOTA  *****

CITY           SKY/WX    TMP DP  RH WIND       PRES   REMARKS
DULUTH         FLURRIES  24  15  68 N17G25    29.97S WCI  11
INTRNTL FALLS  CLEAR     16   6  65 N18       30.11R WCI   0
ELY            FLURRIES  18  10  73 NW13G23   30.01R WCI   4
CLOQUET        CLOUDY    27  16  63 NW10G17   29.99S WCI  17
WHEATON        CLEAR     23  19  86 NW8       30.18F WCI  14
BRAINERD       CLOUDY    27  17  66 N17G24    30.07F WCI  14
HIBBING        CLOUDY    22  13  68 N13       30.04R WCI  10
ALEXANDRIA     CLEAR     24  18  77 NW12      30.12S WCI  13
SAINT CLOUD    CLEAR     26  19  74 NW12      30.07S WCI  16
MINNEAPOLIS    PTCLDY    28  20  71 NW10      30.06F WCI  19
$$

  *****  WEATHER ACROSS SOUTH DAKOTA  *****

CITY           SKY/WX    TMP DP  RH WIND       PRES   REMARKS
SIOUX FALLS    MOCLDY    27  21  78 W7        30.17F WCI  19
BROOKINGS      NOT AVBL
WATERTOWN      PTCLDY    30  23  75 NW9       30.13F WCI  22
HURON          CLEAR     17  13  84 W7        30.18F WCI   8
SISSETON         N/A     26  25  96 N6        30.15S WCI  19
ABERDEEN       CLEAR     24  18  77 NW8       30.17F WCI  15
MITCHELL       CLEAR     22  16  78 W8        30.21F WCI  12
PIERRE         PTCLDY    22  16  78 SW7       30.17F WCI  13
MOBRIDGE       MOCLDY    22  18  85 CALM      30.15S
RAPID CITY     CLOUDY    32  25  75 CALM      30.11F
$$

  *****  SOME WEATHER IN NEARBY STATES *****

CITY           SKY/WX    TMP DP  RH WIND       PRES   REMARKS
GLASGOW MT     MOCLDY    32  26  78 E9        30.06S WCI  24
GREAT FALLS MT CLOUDY    44  33  65 SW15      30.14F
CHEYENNE WY    CLEAR     31  17  56 NW8       30.15F WCI  23
SCOTTSBLUFF NE CLEAR     25  21  85 NE3       30.16F
OMAHA NE       CLEAR     26  23  88 N6        30.19S WCI  19
DES MOINES IA  CLEAR     31  23  72 NW10      30.12S WCI  22
DAVENPORT IA   PTCLDY    28  24  85 W8        30.02F WCI  20
CHICAGO IL     CLOUDY    33  27  78 NW9       29.94F
EAU CLAIRE WI  CLOUDY    33  19  56 NW13      29.97F WCI  24
LA CROSSE WI   CLOUDY    33  23  66 NW15      30.00S WCI  23
$$

  *****  SOME NATIONAL WEATHER *****

CITY           SKY/WX    TMP DP  RH WIND       PRES   REMARKS
LA GUARDIA NY  CLOUDY    39  37  93 E3        30.01S FOG
RALEIGH NC     LGT RAIN  64  62  93 S10       29.99S
ATLANTA GA     CLOUDY    62  60  93 S5        29.99F
NEW ORLEANS LA CLOUDY    67  63  87 SE3       29.89F
OKLAHOMA CITY  CLOUDY    42  37  82 N25G33    30.13R
ALBUQUERQUE NM CLEAR     43  24  47 NE15      30.26S
SALT LAKE CITY CLEAR     37  21  52 SE5       30.39F
LOS ANGELES CA PTCLDY    61  49  64 E5        30.04S
BOISE ID       PTCLDY    39  33  79 SE6       30.41F
SEATTLE WA     MOCLDY    54  51  90 S5        30.32R
$$

*** WEATHER ACROSS MANITOBA...SASKATCHEWAN AND ONTARIO ***
                ***ONTARIO***

CITY           SKY/WX    TMP DP  RH WIND       PRES   REMARKS
GERALDTON      FLURRIES   9   3  78 N14       29.93R WCI  -8
THUNDER BAY    FLURRIES  19  12  73 N12G23    29.97R WCI   7
SIOUX LOOKOUT  CLEAR      7   1  78 N7        30.10R WCI  -5
TORONTO        MOCLDY    37  30  75 W6        29.89F
BIG TROUT LK   MOCLDY    -8 -11  84 NW8       30.11S WCI -23
PICKLE LAKE    NOT AVBL
DRYDEN         CLEAR      9   5  85 N6        30.11R WCI  -1
KENORA         FLURRIES  16  10  79 N7        30.14R WCI   6
$$
                *** MANITOBA***

CITY           SKY/WX    TMP DP  RH WIND       PRES   REMARKS
BRANDON        FLURRIES  21  19  93 E6        30.23R WCI  14
DAUPHIN        FOG       19  18  93 CALM      30.25R VSB 1/4
ISLAND LAKE    CLEAR     -8 -13  77 W5        30.26F WCI -19
PILOT MOUND      N/A     18  14  86 N3          N/A
THE PAS        CLEAR     10   5  79 E3        30.30S
THOMPSON       CLEAR     -6 -13  71 NW3       30.34R
WINNIPEG       CLEAR     18  14  86 N7        30.25S WCI   8
LYNN LAKE      CLEAR    -17 -24  70 NW2       30.31S
CHURCHILL      CRYSTALS  -4  -8  84 NW15      30.29S WCI -25
GILLAM         CLEAR     -6 -13  71 W8        30.28R WCI -21
$$
                ***SASKATCHEWAN***

CITY           SKY/WX    TMP DP  RH WIND       PRES   REMARKS
ESTEVAN        CLOUDY    27  23  86 E7        30.17F WCI  19
KINDERSLEY     PTCLDY    27  25  93 NE2       30.07F
LLOYDMINSTER   PTCLDY    18  16  93 SE5       30.07S FOG     WCI  11
PRINCE ALBERT  CLOUDY    23  19  86 E8        30.19F WCI  14
REGINA         PTCLDY    25  21  86 E13       30.14F WCI  13
YORKTON        CLEAR     12  10  92 NW2       30.20F
N. BATTLEFORD  CLEAR     23  21  93 E9        30.12F WCI  13
LA RONGE       CLEAR     12   7  79 NE6       30.24S WCI   3
SASKATOON      MOCLDY    25  23  93 E6        30.15F WCI  18
SWIFT CURRENT  MOCLDY    30  28  93 SW7       30.05R WCI  23
$$
NOTE: THESE ARE AUTOMATED STATIONS WITH LIMITED QUALITY CONTROL
      "FAIR" INDICATES FEW OR NO CLOUDS BELOW 12,000 FEET WITH NO
      SIGNIFICANT WEATHER AND/OR OBSTRUCTIONS TO VISIBILITY.
      SKY/WX - SKY CONDITION AND SIGNIFICANT WEATHER.
      TMP - AIR TEMPERATURE.    DP   - DEWPOINT TEMPERATURE.
      RH  - RELATIVE HUMIDITY.  PRES - PRESSURE.
      HX  - HEAT INDEX.         WCI  - WIND CHILL INDEX.
$



USA.gov is the U.S. government's official web portal to all federal, state and local government web resources and services.